FALCON 9 DEB (52386 NORAD) Tracking and Keplerian Element Data

This shows tracking and keplerian element data for the satellite.

Feedback or suggestion? Click here.




ElementValue
Catalog52386
NameFALCON 9 DEB
Epoch Orbit649
Epoch Day160.38561322
Epoch Year2022
RAAN227.9008
Inclination53.1889
Eccentricity0.0006525
Argument of Perigee329.7843
Mean Anonmoly30.283
Mean Motion16.43957066
Decay Rate0.08596953
L11 52386U 22045BH 22160.38561322 .08596953 12553-4 30789-3 0 9993
L22 52386 53.1889 227.9008 0006525 329.7843 30.2830 16.43957066 6494

Live tracking and technical data element details for FALCON 9 DEB (NORAD 52386). FALCON 9 DEB can be tracked NOW for your location showing map with azimuth and elevation plus other details from your city location.

Track the satellite on the map from your city or location and see movement details for azimuth, elevation, latitude, longitude, range, height, and movement on the map or in text.







IsCatalogInMostPopularTable: catalog: 52386, numindb: 7
Update: records affected: 1



GetName: 52386 FALCON 9 DEB

Hit Count: updated at: Sat, 25 Jun 2022 05:41:20 GMT